Simultaneous Nadir Overpasses (SNOs) Predictions

Prediction of SNOs between LANDSAT-8 and NOAA-19 Satellite Orbit:

Table of predicted SNOs for the next 14.0 days since TLE Epoch: 11/18/2023
Index Date (LANDSAT-8) Time (LANDSAT-8) Lat,Lon (LANDSAT-8) SZA (LANDSAT-8 ) Date (NOAA-19) Time (NOAA-19) Lat,Lon (NOAA-19) SZA (NOAA-19 ) Distance(km) Time Diff (sec)
1 11/18/2023 11:32:49 -80.90,-136.44 77.83 11/18/2023 11:31:44 -80.90,-136.40 77.86 0.73 65
2 11/18/2023 12:22:15 80.91, 31.30 102.19 11/18/2023 12:22:47 80.91, 31.41 102.22 2.00 32
3 11/20/2023 17:56:01 -80.89, 127.63 77.35 11/20/2023 17:55:00 -80.90, 127.70 77.36 1.52 61
4 11/20/2023 18:45:27 80.90, -64.65 102.68 11/20/2023 18:46:03 80.91, -64.57 102.71 1.98 36
5 11/23/2023 00:19:12 -80.90, 31.96 76.85 11/23/2023 00:18:15 -80.90, 32.13 76.85 2.91 57
6 11/23/2023 01:08:38 80.90,-160.34 103.17 11/23/2023 01:09:18 80.91,-160.24 103.21 1.92 40
7 11/25/2023 06:42:23 -80.90, -63.80 76.40 11/25/2023 06:41:31 -80.90, -63.87 76.43 1.26 52
8 11/25/2023 07:31:49 80.90, 103.87 103.62 11/25/2023 07:32:33 80.91, 104.02 103.66 2.62 44
9 11/27/2023 13:05:34 -80.90,-159.66 76.00 11/27/2023 13:04:46 -80.90,-159.54 76.00 2.10 48
10 11/27/2023 13:55:00 80.90, 7.99 104.01 11/27/2023 13:55:49 80.90, 7.83 104.02 2.89 49
11 11/29/2023 19:28:45 -80.88, 104.38 75.65 11/29/2023 19:28:02 -80.89, 104.36 75.66 0.87 43
12 11/29/2023 20:18:10 80.91, -87.63 104.42 11/29/2023 20:19:03 80.91, -87.68 104.43 1.08 53
13 12/02/2023 01:51:55 -80.89, 8.68 75.30 12/02/2023 01:51:17 -80.89, 8.58 75.32 1.77 38



Historial Predications of SNOs between LANDSAT-8 and NOAA-19
